NIEUW!!! Volg onze weer- en natuurfoto's op Instagram @ weerstationmaaseik.be

WS Maaseik 1 Meer informatie WS Maaseik 1


WS Maaseik 2 Meer informatie WS Maaseik 2


Regen radar Meer informatie rain snow radar


Bezoek onze andere website:

Vorige versie
weerstation Maaseik


Bezoek ook eens deze sites:

Weerstation Geleen



Het weer levert geen direct gevaar op.    Er zijn geen waarschuwingen afgegeven.

15 daagse weersverwachting Siracusa (IT)

  • Overzicht
  • Per uur
  • 15 dagen
  • Extra
  • Vergelijk
  • Kaarten
  • Dagkaart
  • Meer »
  • Info
  • Statistieken
  • Directe link
    Temp 6h Neerslag Wind  
 06:50     16:43    Daglengte: 9:53 Morgen
01:00
16°
4.9 mm
3
07:00
16°
11.9 mm
2
13:00
17°
25.3 mm
3
19:00
16°
33.2 mm
2
 06:51     16:43    Daglengte: 9:52 Donderdag 26 Nov
01:00
16°
22.4 mm
3
07:00
16°
39.3 mm
4
13:00
17°
 
4
19:00
15°
 
4
 06:52     16:42    Daglengte: 9:50 Vrijdag 27 Nov
01:00
14°
 
3
07:00
13°
 
3
13:00
17°
 
4
19:00
16°
 
4
Locatie info
Region: Sicilia
Latitude: 37.0780°N
Longitude: 15.2813°E
55 masl
Postcode: 96100
Temp/Neerslag /Baro Onweer/Dauwpunt
    Temp Baro 1h Neerslag Dauwpunt Wind UV Bewolking  
 06:49     16:43    Daglengte: 9:54 Vandaag
23:00
16°
1022.0 hPa 2.8 mm
48%
14.5°
3
Windvlaag: -0.9 m/s
67%
 06:50     16:43    Daglengte: 9:53 Morgen
00:00
16°
1021.9 hPa 0.8 mm
82%
14.8°
3
Windvlaag: -0.8 m/s
74%
01:00
16°
1021.7 hPa 1.3 mm
82%
14.6°
3
Windvlaag: -0.5 m/s
67%
02:00
16°
1021.5 hPa 1.6 mm
81%
14.2°
3
Windvlaag: -0.6 m/s
77%
03:00
16°
1021.2 hPa 1.5 mm
78%
14.0°
3
Windvlaag: -0.6 m/s
64% warningclass
04:00
16°
1021.0 hPa 1.7 mm
78%
14.2°
3
Windvlaag: -0.6 m/s
68% warningclass
05:00
16°
1021.1 hPa 1.9 mm
76%
14.1°
2
Windvlaag: -0.6 m/s
70%
06:00
16°
1021.4 hPa 2.4 mm
77%
14.1°
2
Windvlaag: -0.5 m/s
72%
07:00
16°
1021.7 hPa 2.9 mm
78%
13.9°
2
Windvlaag: -0.4 m/s
78%
08:00
16°
1022.0 hPa 3.0 mm
82%
14.1°
3
Windvlaag: -0.2 m/s
73%
09:00
16°
1022.2 hPa 3.3 mm
82%
14.5°
3
Windvlaag: 0.1 m/s
82%
10:00
16°
1022.2 hPa 4.2 mm
82%
14.5°
3
Windvlaag: -0.3 m/s
78%
11:00
16°
1022.1 hPa 4.7 mm
82%
14.4°
3
Windvlaag: -0.2 m/s
60%
12:00
17°
1021.6 hPa 5.1 mm
82%
14.3°
3
Windvlaag: -0 m/s
50%
13:00
17°
1021.4 hPa 5.0 mm
82%
14.3°
3
Windvlaag: -0.2 m/s
57%
14:00
17°
1021.2 hPa 4.7 mm
82%
14.3°
3
Windvlaag: -0.1 m/s
71%
15:00
17°
1021.3 hPa 6.7 mm
82%
14.4°
3
Windvlaag: -0.2 m/s
78%
16:00
16°
1021.3 hPa 6.8 mm
76%
14.3°
2
Windvlaag: -0.5 m/s
78%
17:00
16°
1021.5 hPa 5.1 mm
81%
14.2°
2
Windvlaag: -0.2 m/s
69%
18:00
16°
1021.7 hPa 5.0 mm
77%
14.2°
2
Windvlaag: -0.3 m/s
50%
19:00
16°
1021.9 hPa 4.8 mm
75%
14.2°
2
Windvlaag: -0.2 m/s
50%
20:00
16°
1022.1 hPa 4.7 mm
75%
14.2°
2
Windvlaag: -0.4 m/s
56%
21:00
16°
1022.3 hPa 6.5 mm
75%
14.0°
3
Windvlaag: -0.3 m/s
56%
22:00
16°
1022.4 hPa 4.7 mm
75%
13.8°
3
Windvlaag: -0.4 m/s
43%
23:00
16°
1022.4 hPa 6.6 mm
75%
13.6°
3
Windvlaag: -0.5 m/s
57%
 06:51     16:43    Daglengte: 9:52 Donderdag 26 Nov
00:00
16°
1022.3 hPa
74%
13.7°
3
Windvlaag: -0.6 m/s
47%
01:00
16°
1022.2 hPa
74%
13.8°
3
Windvlaag: -0.6 m/s
61%
02:00
16°
1022.1 hPa 6.5 mm
72%
13.8°
3
Windvlaag: -0.8 m/s
48%
03:00
16°
1021.9 hPa 6.5 mm
71%
13.9°
3
Windvlaag: -1.1 m/s
41%
04:00
16°
1021.9 hPa 6.5 mm
76%
13.5°
4
Windvlaag: -1.2 m/s
46%
05:00
16°
1022.0 hPa 6.6 mm
76%
13.7°
4
Windvlaag: -1.6 m/s
32%
06:00
16°
1022.3 hPa 6.6 mm
77%
13.9°
4
Windvlaag: -1.8 m/s
53%
07:00
16°
1022.5 hPa 6.7 mm
76%
13.8°
4
Windvlaag: -1.8 m/s
42%
08:00
16°
1022.8 hPa
75%
13.4°
4
Windvlaag: 0.2 m/s
35%
09:00
17°
1023.2 hPa
75%
11.5°
4
Windvlaag: 1.1 m/s
37%
10:00
17°
1023.3 hPa
77%
10.3°
5
Windvlaag: 1.1 m/s
37%
11:00
17°
1023.1 hPa
81%
9.8°
5
Windvlaag: 1 m/s
34%
12:00
17°
1022.6 hPa
82%
9.4°
5
Windvlaag: 0.8 m/s
32%
13:00
17°
1022.3 hPa
82%
9.3°
4
Windvlaag: 0.8 m/s
22%
14:00
18°
1021.9 hPa
77%
9.7°
4
Windvlaag: 0.8 m/s
23%
15:00
17°
1021.7 hPa
32%
9.7°
4
Windvlaag: 0.8 m/s
6%
16:00
17°
1021.3 hPa
38%
11.1°
4
Windvlaag: 0.7 m/s
7%
17:00
16°
1021.4 hPa
24%
11.3°
4
Windvlaag: 0.7 m/s
7%
18:00
16°
1021.5 hPa
21%
11.3°
4
Windvlaag: 0.5 m/s
5%
19:00
15°
1021.8 hPa
21%
10.6°
4
Windvlaag: 0.6 m/s
5%
20:00
16°
1022.1 hPa
22%
9.6°
3
Windvlaag: 0.7 m/s
6%
21:00
15°
1022.3 hPa
24%
9.7°
3
Windvlaag: 0.8 m/s
10%
22:00
15°
1022.3 hPa
21%
9.9°
3
Windvlaag: 0.9 m/s
27%
23:00
15°
1022.2 hPa
22%
9.6°
3
Windvlaag: 0.9 m/s
25%
 06:52     16:42    Daglengte: 9:50 Vrijdag 27 Nov
00:00
14°
1022.0 hPa
24%
11.2°
3
Windvlaag: 0.7 m/s
23%
01:00
14°
1021.7 hPa
24%
11.7°
3
Windvlaag: 0.3 m/s
17%
02:00
15°
1021.4 hPa
21%
12.5°
3
Windvlaag: -0.1 m/s
24%
03:00
15°
1021.2 hPa
28%
12.3°
3
Windvlaag: -0.2 m/s
28%
04:00
15°
1020.9 hPa
31%
12.1°
3
Windvlaag: -0.1 m/s
14%
05:00
15°
1020.9 hPa
28%
12.3°
3
Windvlaag: -0.1 m/s
9%
06:00
13°
1021.1 hPa
74%
11.9°
3
Windvlaag: -0 m/s
9%
07:00
13°
1021.3 hPa
33%
12.1°
3
Windvlaag: -0 m/s
18%
08:00
16°
1021.5 hPa
30%
13.6°
3
Windvlaag: 0.1 m/s
26%
09:00
17°
1021.6 hPa
24%
12.3°
4
Windvlaag: -0 m/s
20%
10:00
17°
1021.7 hPa
22%
9.4°
5
Windvlaag: -0.1 m/s
28%
11:00
17°
1021.4 hPa
21%
8.6°
4
Windvlaag: -0.1 m/s
29%
12:00
17°
1020.6 hPa
22%
8.9°
4
Windvlaag: 0.4 m/s
40%
13:00
17°
1020.0 hPa
31%
9.2°
4
Windvlaag: 1.8 m/s
35%
14:00
17°
1019.4 hPa
36%
9.8°
4
Windvlaag: 7 m/s
35%
15:00
17°
1019.3 hPa
38%
10.2°
4
Windvlaag: 8.2 m/s
27%
16:00
17°
1019.2 hPa
43%
10.4°
4
Windvlaag: 7.2 m/s
25%
17:00
16°
1019.2 hPa
83%
10.6°
4
Windvlaag: 7.2 m/s
22%
18:00
16°
1019.2 hPa
88%
10.9°
4
Windvlaag: 7.1 m/s
20%
19:00
16°
1019.3 hPa
96%
11.1°
4
Windvlaag: 1.1 m/s
44%
20:00
15°
1020.2 hPa 34.3 mm
100%
10.4°
3
Windvlaag: 8 m/s
34%
21:00
15°
1020.2 hPa 34.4 mm
100%
10.7°
3
Windvlaag: 8.9 m/s
47%
22:00
15°
1020.1 hPa 34.6 mm
100%
11.1°
4
Windvlaag: 9.8 m/s
59%
Temp/Neerslag /Baro Onweer/Dauwpunt
    Temp Baro Neerslag Dauwpunt Wind Bewolking  
 06:50     16:43    Daglengte: 9:53 Morgen
01:00
16°
1021.7 hPa 4.9 mm 14.6°
3
67%
04:00
16°
1021.0 hPa 4.7 mm 14.2°
3
68% warningclass
07:00
16°
1021.7 hPa 7.2 mm 13.9°
2
78%
10:00
16°
1022.2 hPa 10.5 mm 14.5°
3
78%
13:00
17°
1021.4 hPa 14.8 mm 14.3°
3
57%
16:00
16°
1021.3 hPa 18.2 mm 14.3°
2
78%
19:00
16°
1021.9 hPa 14.9 mm 14.2°
2
50%
22:00
16°
1022.4 hPa 15.8 mm 13.8°
3
43%
 06:51     16:43    Daglengte: 9:52 Donderdag 26 Nov
01:00
16°
1022.2 hPa 6.6 mm 13.8°
3
61%
04:00
16°
1021.9 hPa 19.4 mm 13.5°
4
46%
07:00
16°
1022.5 hPa 19.9 mm 13.8°
4
42%
10:00
17°
1023.3 hPa   10.3°
5
37%
13:00
17°
1022.3 hPa   9.3°
4
22%
16:00
17°
1021.3 hPa   11.1°
4
7%
19:00
15°
1021.8 hPa   10.6°
4
5%
22:00
15°
1022.3 hPa   9.9°
3
27%
 06:52     16:42    Daglengte: 9:50 Vrijdag 27 Nov
01:00
14°
1021.7 hPa   11.7°
3
17%
04:00
15°
1020.9 hPa   12.1°
3
14%
07:00
13°
1021.3 hPa   12.1°
3
18%
10:00
17°
1021.7 hPa   9.4°
5
28%
13:00
17°
1020.0 hPa   9.2°
4
35%
16:00
17°
1019.2 hPa   10.4°
4
25%
19:00
16°
1019.3 hPa   11.1°
4
44%
22:00
15°
1020.1 hPa 103.3 mm 11.1°
4
59%
 06:53     16:42    Daglengte: 9:49 Zaterdag 28 Nov
01:00
15°
1019.8 hPa 104.1 mm 12.2°
5
94%
04:00
16°
1018.9 hPa 27.4 mm 11.8°
6
89%
07:00
16°
1018.2 hPa 30.5 mm 11.6°
6
89%
10:00
17°
1017.3 hPa 31.4 mm 12.3°
8
81%
13:00
17°
1016.1 hPa 32.3 mm 13.0°
9
72%
16:00
17°
1015.1 hPa 34.7 mm 13.4°
9
63%
19:00
17°
1014.3 hPa 37.3 mm 13.8°
9
54%
22:00
16°
1013.0 hPa 40.1 mm 13.5°
8
72%
 06:53     16:42    Daglengte: 9:49 Zondag 29 Nov
01:00
15°
1011.7 hPa 40.5 mm 13.1°
8
91%
04:00
14°
1011.0 hPa 40.7 mm 11.9°
5
68%
07:00
13°
1010.4 hPa 40.7 mm 10.7°
3
44%
10:00
15°
1010.1 hPa 40.7 mm 10.0°
4
27%
13:00
17°
1009.7 hPa 41.1 mm 8.3°
6
10%
16:00
15°
1010.3 hPa 46.0 mm 8.8°
4
50%
19:00
13°
1011.0 hPa 46.2 mm 8.7°
2
90%
22:00
12°
1010.8 hPa 46.3 mm 8.9°
2
68%
 06:54     16:42    Daglengte: 9:48 Maandag 30 Nov
01:00
12°
1010.6 hPa 46.7 mm 9.0°
1
47%
04:00
12°
1010.9 hPa 46.7 mm 8.9°
2
65%
07:00
12°
1011.4 hPa 46.7 mm 8.8°
4
84%
10:00
14°
1012.4 hPa 46.7 mm 9.0°
4
44%
13:00
17°
1013.3 hPa 46.7 mm 8.8°
5
4%
16:00
16°
1014.6 hPa 46.7 mm 9.5°
3
8%
19:00
14°
1016.1 hPa 46.7 mm 9.9°
2
11%
22:00
13°
1016.9 hPa 46.7 mm 8.9°
2
6%
 06:55     16:42    Daglengte: 9:47 Dinsdag 01 Dec
01:00
11°
1017.6 hPa 46.7 mm 7.9°
2
1%
04:00
11°
1018.0 hPa 46.7 mm 7.5°
2
1%
07:00
11°
1018.3 hPa 46.7 mm 7.2°
2
1%
10:00
14°
1018.3 hPa 46.7 mm 9.0°
2
16%
13:00
16°
1018.0 hPa 46.7 mm 10.8°
3
30%
16:00
15°
1018.3 hPa 46.8 mm 11.2°
2
34%
19:00
13°
1018.7 hPa 46.9 mm 11.2°
2
39%
22:00
13°
1018.9 hPa   10.9°
2
38%
 06:56     16:41    Daglengte: 9:45 Woensdag 02 Dec
01:00
12°
1019.0 hPa 93.8 mm 10.6°
2
37%
07:00
12°
1018.5 hPa 93.8 mm 10.7°
2
44%
13:00
15°
1017.4 hPa 94.1 mm 12.0°
2
34%
19:00
14°
1017.1 hPa 95.2 mm 11.8°
1
32%
 06:57     16:41    Daglengte: 9:44 Donderdag 03 Dec
01:00
12°
1016.4 hPa 95.7 mm 11.0°
2
92%
07:00
12°
1014.7 hPa 96.0 mm 10.6°
1
92%
13:00
15°
1012.7 hPa 96.2 mm 12.6°
3
92%
19:00
13°
1012.8 hPa 97.3 mm 11.1°
2
90%
 06:58     16:41    Daglengte: 9:43 Vrijdag 04 Dec
01:00
13°
1012.9 hPa 97.3 mm 9.9°
2
88%
07:00
10°
1013.3 hPa 97.3 mm 7.9°
2
0%
13:00
18°
1014.7 hPa 97.3 mm 14.7°
1
0%
19:00
15°
1012.0 hPa 0.5 mm 10.7°
2
45%
 06:59     16:41    Daglengte: 9:42 Zaterdag 05 Dec
01:00
14°
1012.1 hPa 0.6 mm 10.6°
2
48%
07:00
14°
1011.5 hPa 0.6 mm 10.4°
2
44%
13:00
17°
1010.8 hPa   10.5°
3
44%
19:00
15°
1011.1 hPa 1.8 mm 10.9°
2
52%
 07:00     16:41    Daglengte: 9:41 Zondag 06 Dec
01:00
14°
1011.2 hPa 1.6 mm 10.1°
2
59%
07:00
14°
1010.9 hPa 1.4 mm 9.9°
2
52%
13:00
17°
1010.5 hPa 1.5 mm 10.3°
4
52%
19:00
15°
1011.4 hPa 1.8 mm 10.7°
3
46%
 07:01     16:41    Daglengte: 9:40 Maandag 07 Dec
01:00
14°
1012.3 hPa 1.3 mm 10.6°
3
41%
07:00
14°
1011.9 hPa 1.2 mm 10.2°
3
46%
13:00
17°
1011.2 hPa 0.6 mm 10.4°
3
45%
19:00
14°
1011.6 hPa 0.9 mm 10.9°
3
46%
 07:01     16:41    Daglengte: 9:40 Dinsdag 08 Dec
01:00
14°
1012.2 hPa 1.1 mm 10.5°
3
52%
07:00
14°
1011.9 hPa 0.5 mm 10.1°
3
48%
13:00
17°
1011.7 hPa 0.7 mm 10.0°
3
57%
19:00
15°
1012.0 hPa 0.8 mm 10.9°
2
55%
 07:02     16:41    Daglengte: 9:39 Woensdag 09 Dec
01:00
14°
1012.7 hPa 0.8 mm 10.5°
3
51%
07:00
13°
1012.7 hPa 0.6 mm 10.0°
3
49%
13:00
16°
1013.1 hPa 0.6 mm 9.5°
3
47%
19:00
14°
1014.2 hPa 1.3 mm 9.5°
3
37%
  CAPE Lifted Index Hail Supercell Tornado SRH 3km CL BTM PRES CL TOP PRES Swiss DWD icon SMHI TS
 06:49     16:43    Daglengte: 9:54 Vandaag
23:00 269 J/kg -0.8 K 0 % 0 % 0 % 0 m²/s² 0 0 0.25 80
 06:50     16:43    Daglengte: 9:53 Morgen
00:00 415 J/kg -1.7 K 0 % 0 % 0 % 0 m²/s² 0 0 -0.68 80
01:00 565 J/kg -2.6 K 0 % 0 % 0 % 0 m²/s² 0 0 -1.46 80
02:00 506 J/kg -2.2 K 0 % 0 % 0 % 0 m²/s² 0 0 -1 80
03:00 433 J/kg -1.7 K 0 % 0 % 0 % 0 m²/s² 0 0 -0.65 95
04:00 449 J/kg -1.8 K 0 % 0 % 0 % 0 m²/s² 0 0 -0.99 95
05:00 384 J/kg -1.3 K 0 % 0 % 0 % 0 m²/s² 0 0 -0.67 80
06:00 357 J/kg -1.2 K 0 % 0 % 0 % 0 m²/s² 0 0 -0.24 80
07:00 379 J/kg -1.1 K 0 % 0 % 0 % 0 m²/s² 0 0 0.37 80
08:00 405 J/kg -1.4 K 0 % 0 % 0 % 0 m²/s² 0 0 0.01 80
09:00 381 J/kg -1.5 K 0 % 0 % 0 % 0 m²/s² 0 0 -1.47 80
10:00 346 J/kg -1.3 K 0 % 0 % 0 % 0 m²/s² 0 0 -0.97 80
11:00 368 J/kg -1.3 K 0 % 0 % 0 % 0 m²/s² 0 0 -0.79 80
12:00 408 J/kg -1.2 K 0 % 0 % 0 % 0 m²/s² 0 0 0.66 80
13:00 411 J/kg -1.2 K 0 % 0 % 0 % 0 m²/s² 0 0 1.41 80
14:00 385 J/kg -1.0 K 0 % 0 % 0 % 0 m²/s² 0 0 2.03 80
15:00 388 J/kg -1.1 K 0 % 0 % 0 % 0 m²/s² 0 0 0.16 2
16:00 423 J/kg -1.2 K 0 % 0 % 0 % 0 m²/s² 0 0 -0.09 2
17:00 389 J/kg -1.0 K 0 % 0 % 0 % 0 m²/s² 0 0 -0.13 80
18:00 413 J/kg -0.8 K 0 % 0 % 0 % 0 m²/s² 0 0 -0.47 80
19:00 424 J/kg -0.9 K 0 % 0 % 0 % 0 m²/s² 0 0 -0.66 3
20:00 398 J/kg -0.8 K 0 % 0 % 0 % 0 m²/s² 0 0 -0.47 80
21:00 334 J/kg -0.4 K 0 % 0 % 0 % 0 m²/s² 0 0 0.41 80
22:00 330 J/kg -0.3 K 0 % 0 % 0 % 0 m²/s² 0 0 0.48 80
23:00 307 J/kg -0.2 K 0 % 0 % 0 % 0 m²/s² 0 0 0.94 80
 06:51     16:43    Daglengte: 9:52 Donderdag 26 Nov
00:00 303 J/kg -0.4 K 0 % 0 % 0 % 0 m²/s² 0 0 1.28 80
01:00 309 J/kg -0.4 K 0 % 0 % 0 % 0 m²/s² 0 0 1.67 2
02:00 325 J/kg -0.5 K 0 % 0 % 0 % 0 m²/s² 0 0 1.57 80
03:00 357 J/kg -0.9 K 0 % 0 % 0 % 0 m²/s² 0 0 1.29 80
04:00 321 J/kg -0.7 K 0 % 0 % 0 % 0 m²/s² 0 0 1.61 80
05:00 375 J/kg -0.9 K 0 % 0 % 0 % 0 m²/s² 0 0 1.8 80
06:00 467 J/kg -1.3 K 0 % 0 % 0 % 0 m²/s² 0 0 1.55 80
07:00 549 J/kg -1.5 K 0 % 0 % 0 % 0 m²/s² 0 0 1.2 80
08:00 524 J/kg -1.3 K 0 % 0 % 0 % 0 m²/s² 0 0 0.38 80
09:00 269 J/kg -0.3 K 0 % 0 % 0 % 0 m²/s² 0 0 0.84 80
10:00 125 J/kg 0.6 K 0 % 0 % 0 % 0 m²/s² 0 0 1.92 80
11:00 10 J/kg 2.5 K 0 % 0 % 0 % 0 m²/s² 0 0 4.15 80
12:00 1 J/kg 3.1 K 0 % 0 % 0 % 0 m²/s² 0 0 5.05 80
13:00 1 J/kg 3.1 K 0 % 0 % 0 % 0 m²/s² 0 0 5.23 80
14:00 3 J/kg 2.7 K 0 % 0 % 0 % 0 m²/s² 0 0 5.04 2
15:00 0 J/kg 2.8 K 0 % 0 % 0 % 0 m²/s² 0 0 5.44 1
16:00 11 J/kg 2.3 K 0 % 0 % 0 % 0 m²/s² 0 0 5.15 1
17:00 11 J/kg 2.4 K 0 % 0 % 0 % 0 m²/s² 0 0 5.34 1
18:00 5 J/kg 3.0 K 0 % 0 % 0 % 0 m²/s² 0 0 5.94 1
19:00 4 J/kg 3.2 K 0 % 0 % 0 % 0 m²/s² 0 0 6.23 0
20:00 6 J/kg 3.1 K 0 % 0 % 0 % 0 m²/s² 0 0 6.28 0
21:00 6 J/kg 3.3 K 0 % 0 % 0 % 0 m²/s² 0 0 6.57 0
22:00 5 J/kg 3.6 K 0 % 0 % 0 % 0 m²/s² 0 0 6.96 0
23:00 0 J/kg 3.9 K 0 % 0 % 0 % 0 m²/s² 0 0 7.35 0
 06:52     16:42    Daglengte: 9:50 Vrijdag 27 Nov
00:00 0 J/kg 4.6 K 0 % 0 % 0 % 0 m²/s² 0 0 8.23 3
01:00 0 J/kg 4.9 K 0 % 0 % 0 % 0 m²/s² 0 0 8.53 1
02:00 0 J/kg 4.0 K 0 % 0 % 0 % 0 m²/s² 0 0 7.45 2
03:00 0 J/kg 4.2 K 0 % 0 % 0 % 0 m²/s² 0 0 7.47 3
04:00 0 J/kg 3.5 K 0 % 0 % 0 % 0 m²/s² 0 0 6.86 3
05:00 0 J/kg 4.1 K 0 % 0 % 0 % 0 m²/s² 0 0 7.85 2
06:00 0 J/kg 4.0 K 0 % 0 % 0 % 0 m²/s² 0 0 7.96 2
07:00 0 J/kg 3.1 K 0 % 0 % 0 % 0 m²/s² 0 0 7.15 2
08:00 0 J/kg 3.6 K 0 % 0 % 0 % 0 m²/s² 0 0 7.44 3
09:00 2 J/kg 2.8 K 0 % 0 % 0 % 0 m²/s² 0 0 6.46 1
10:00 12 J/kg 2.4 K 0 % 0 % 0 % 0 m²/s² 0 0 5.28 3
11:00 9 J/kg 1.8 K 0 % 0 % 0 % 0 m²/s² 0 0 4.38 3
12:00 52 J/kg 0.7 K 0 % 0 % 0 % 0 m²/s² 0 0 3.43 3
13:00 303 J/kg -0.8 K 0 % 0 % 0 % 0 m²/s² 0 0 1.36 2
14:00 574 J/kg -2.1 K 0 % 0 % 0 % 0 m²/s² 0 0 -0.45 2
15:00 500 J/kg -1.9 K 0 % 0 % 0 % 0 m²/s² 0 0 0.05 2
16:00 485 J/kg -2.0 K 0 % 0 % 0 % 0 m²/s² 0 0 -0.35 2
17:00 450 J/kg -1.9 K 0 % 0 % 0 % 0 m²/s² 0 0 -0.52 1
18:00 451 J/kg -1.9 K 0 % 0 % 0 % 0 m²/s² 0 0 -0.67 2
19:00 455 J/kg -1.9 K 0 % 0 % 0 % 0 m²/s² 0 0 -1.03 3
20:00 401 J/kg -1.6 K 0 % 0 % 0 % 0 m²/s² 0 0 -0.73
21:00 375 J/kg -1.5 K 0 % 0 % 0 % 0 m²/s² 0 0 -0.57
22:00 388 J/kg -1.5 K 0 % 0 % 0 % 0 m²/s² 0 0 -0.66
Temp Baro Wind Neerslag
  EWN Forecast EWN WRFDA DWD ICON FMI HIRLAM MET Norway GFS
 06:50     16:43    Daglengte: 9:53 Morgen
01:00 16.1° 1021.7 hPa 3.2 m/s 4.9 mm 15.6° 1021.1 hPa 4.5 m/s 10.0 mm 16.3° 1021.4 hPa 2.0 m/s 7.2 mm 17.8° 1021.7 hPa 4.3 m/s 0.0 mm 14.0° 1022.0 hPa 1.5 m/s 16.6° 1021.4 hPa 3.5 m/s
04:00 15.8° 1021.0 hPa 2.6 m/s 4.7 mm 15.9° 1019.9 hPa 3.4 m/s 23.2 mm 15.9° 1020.6 hPa 1.6 m/s 2.0 mm 17.3° 1021.2 hPa 3.6 m/s 0.0 mm 13.4° 1021.3 hPa 1.3 m/s 15.8° 1020.3 hPa 2.8 m/s
07:00 15.8° 1021.7 hPa 2.3 m/s 7.2 mm 15.9° 1021.0 hPa 2.2 m/s 27.0 mm 15.9° 1021.4 hPa 1.9 m/s 2.1 mm 17.4° 1021.7 hPa 3.7 m/s 0.0 mm 13.9° 1021.8 hPa 1.3 m/s 15.6° 1021.4 hPa 2.9 m/s
10:00 16.3° 1022.2 hPa 2.5 m/s 10.5 mm 15.3° 1021.5 hPa 0.5 m/s 46.3 mm 16.5° 1022.1 hPa 2.0 m/s 2.4 mm 17.4° 1022.1 hPa 3.9 m/s 0.0 mm 15.3° 1022.4 hPa 2.4 m/s 16.8° 1021.5 hPa 3.4 m/s
13:00 16.6° 1021.4 hPa 2.6 m/s 14.8 mm 16.6° 1020.8 hPa 2.2 m/s 87.7 mm 16.6° 1021.3 hPa 2.0 m/s 1.9 mm 17.8° 1021.5 hPa 5.3 m/s 0.0 mm 15.8° 1021.4 hPa 2.1 m/s 17.2° 1020.8 hPa 4.3 m/s
16:00 16.4° 1021.3 hPa 2.5 m/s 18.2 mm 16.8° 1020.3 hPa 2.3 m/s 91.3 mm 16.3° 1020.8 hPa 2.4 m/s 0.4 mm 17.6° 1021.5 hPa 4.8 m/s 0.0 mm 15.2° 1021.4 hPa 1.4 m/s 17.1° 1020.4 hPa 3.6 m/s
19:00 16.1° 1021.9 hPa 2.2 m/s 14.9 mm 16.6° 1020.7 hPa 2.0 m/s 93.3 mm 16.0° 1021.7 hPa 2.0 m/s 0.4 mm 17.1° 1021.9 hPa 2.5 m/s 0.0 mm 13.8° 1022.1 hPa 1.2 m/s 16.6° 1021.0 hPa 3.8 m/s
22:00 16.1° 1022.4 hPa 2.7 m/s 15.8 mm 16.6° 1021.1 hPa 2.2 m/s 94.3 mm 15.7° 1021.9 hPa 1.7 m/s 0.6 mm 17.8° 1022.7 hPa 5.9 m/s 0.0 mm 14.1° 1022.5 hPa 1.8 m/s 16.6° 1021.7 hPa 4.1 m/s
 06:51     16:43    Daglengte: 9:52 Donderdag 26 Nov
01:00 15.9° 1022.2 hPa 2.9 m/s 6.6 mm 16.3° 1020.8 hPa 1.9 m/s 94.6 mm 15.7° 1021.7 hPa 2.5 m/s 0.4 mm 17.6° 1023.0 hPa 5.5 m/s 0.0 mm 13.8° 1022.7 hPa 2.2 m/s 16.6° 1021.4 hPa 4.5 m/s
04:00 16.0° 1021.9 hPa 3.5 m/s 19.4 mm 16.4° 1020.4 hPa 1.6 m/s 94.9 mm 15.8° 1021.4 hPa 3.3 m/s 0.7 mm 17.5° 1022.5 hPa 6.6 m/s 0.0 mm 13.7° 1022.5 hPa 1.6 m/s 16.5° 1021.2 hPa 4.4 m/s
07:00 16.0° 1022.5 hPa 4.2 m/s 19.9 mm 16.4° 1020.8 hPa 4.0 m/s 95.0 mm 16.0° 1021.9 hPa 4.3 m/s 0.9 mm 17.1° 1023.5 hPa 7.0 m/s 0.0 mm 13.7° 1023.0 hPa 1.5 m/s 16.7° 1021.5 hPa 4.9 m/s
10:00 17.1° 1023.3 hPa 4.7 m/s 0.0 mm 17.7° 1021.8 hPa 6.7 m/s 95.9 mm 16.5° 1022.4 hPa 3.8 m/s 0.3 mm 17.2° 1023.9 hPa 7.1 m/s 0.0 mm 16.8° 1023.7 hPa 3.8 m/s 17.4° 1022.1 hPa 4.6 m/s
13:00 17.3° 1022.3 hPa 4.3 m/s 0.0 mm 18.3° 1020.9 hPa 5.8 m/s 96.3 mm 17.2° 1021.4 hPa 2.5 m/s 0.6 mm 17.2° 1023.0 hPa 5.8 m/s 0.0 mm 16.9° 1022.7 hPa 4.0 m/s 17.6° 1020.8 hPa 3.9 m/s
16:00 17.0° 1021.3 hPa 3.7 m/s 0.0 mm 17.2° 1019.3 hPa 5.1 m/s 96.3 mm 17.6° 1020.9 hPa 4.9 m/s 0.3 mm 15.4° 1022.3 hPa 2.5 m/s 17.4° 1019.5 hPa 4.4 m/s
19:00 15.3° 1021.8 hPa 3.5 m/s 0.0 mm 15.2° 1020.4 hPa 3.6 m/s 96.3 mm 16.8° 1021.3 hPa 4.4 m/s 0.0 mm 13.2° 1022.7 hPa 2.1 m/s 17.1° 1020.6 hPa 5.3 m/s
22:00 14.7° 1022.3 hPa 3.0 m/s 0.0 mm 14.2° 1020.3 hPa 3.4 m/s 96.3 mm 16.6° 1021.1 hPa 4.0 m/s 0.0 mm 13.6° 1023.1 hPa 1.1 m/s 17.0° 1020.8 hPa 5.2 m/s
 06:52     16:42    Daglengte: 9:50 Vrijdag 27 Nov
01:00 14.0° 1021.7 hPa 3.1 m/s 0.0 mm 13.1° 1019.8 hPa 3.3 m/s 96.3 mm 16.5° 1020.9 hPa 3.6 m/s 0.0 mm 13.1° 1022.4 hPa 1.6 m/s 16.7° 1020.2 hPa 4.9 m/s
04:00 14.8° 1020.9 hPa 3.2 m/s 0.0 mm 12.8° 1019.0 hPa 3.3 m/s 96.3 mm 16.7° 1019.9 hPa 3.4 m/s 0.0 mm 14.3° 1021.7 hPa 1.3 m/s 16.6° 1019.6 hPa 4.6 m/s
07:00 13.3° 1021.3 hPa 3.4 m/s 0.0 mm 12.5° 1018.5 hPa 3.2 m/s 96.3 mm 16.4° 1020.2 hPa 4.1 m/s 0.0 mm 11.5° 1022.0 hPa 2.1 m/s 16.5° 1019.3 hPa 5.4 m/s
10:00 17.2° 1021.7 hPa 4.6 m/s 0.0 mm 17.6° 1019.6 hPa 4.6 m/s 96.3 mm 17.8° 1020.8 hPa 5.5 m/s 0.0 mm 16.6° 1022.5 hPa 3.1 m/s 17.5° 1019.8 hPa 6.3 m/s
13:00 17.4° 1020.0 hPa 4.5 m/s 0.0 mm 17.2° 1017.7 hPa 6.0 m/s 96.7 mm 18.2° 1018.7 hPa 5.2 m/s 0.0 mm 17.3° 1020.9 hPa 3.9 m/s 17.5° 1018.1 hPa 5.9 m/s
16:00 16.6° 1019.2 hPa 4.4 m/s 0.0 mm 17.4° 1016.6 hPa 5.8 m/s 100.2 mm 17.8° 1017.7 hPa 5.5 m/s 0.0 mm 15.6° 1020.8 hPa 3.2 m/s 17.5° 1017.1 hPa 5.1 m/s
19:00 15.5° 1019.3 hPa 3.9 m/s 0.0 mm 17.1° 1016.8 hPa 5.1 m/s 102.1 mm 17.3° 1018.0 hPa 5.7 m/s 0.1 mm 13.9° 1020.8 hPa 2.5 m/s 17.4° 1017.5 hPa 5.0 m/s
22:00 14.9° 1020.1 hPa 3.8 m/s 103.3 mm 17.3° 1017.0 hPa 6.5 m/s 103.3 mm 14.4° 1020.6 hPa 3.3 m/s 17.7° 1017.5 hPa 6.6 m/s
 06:53     16:42    Daglengte: 9:49 Zaterdag 28 Nov
01:00 15.4° 1019.8 hPa 4.6 m/s 104.1 mm 17.5° 1015.9 hPa 7.3 m/s 104.1 mm 15.0° 1020.4 hPa 4.1 m/s 18.1° 1016.2 hPa 8.5 m/s
04:00 15.7° 1018.9 hPa 5.6 m/s 27.4 mm 15.5° 1019.2 hPa 5.2 m/s 17.7° 1015.2 hPa 10.2 m/s 27.4 mm
07:00 16.0° 1018.2 hPa 6.2 m/s 30.5 mm 15.8° 1018.6 hPa 5.7 m/s 17.8° 1014.4 hPa 11.6 m/s 30.5 mm
10:00 16.6° 1017.3 hPa 7.5 m/s 31.4 mm 16.5° 1017.5 hPa 7.0 m/s 18.5° 1014.1 hPa 13.2 m/s 31.4 mm
13:00 17.2° 1016.1 hPa 8.7 m/s 32.3 mm 17.1° 1016.5 hPa 8.3 m/s 18.6° 1011.3 hPa 13.2 m/s 32.3 mm
16:00 16.9° 1015.1 hPa 8.7 m/s 34.7 mm 16.8° 1015.6 hPa 8.3 m/s 18.4° 1009.7 hPa 12.6 m/s 34.7 mm
19:00 16.6° 1014.3 hPa 8.7 m/s 37.3 mm 16.5° 1014.7 hPa 8.3 m/s 18.3° 1009.8 hPa 12.7 m/s 37.3 mm
22:00 15.8° 1013.0 hPa 8.4 m/s 40.1 mm 15.6° 1013.3 hPa 8.2 m/s 17.9° 1010.0 hPa 10.3 m/s 40.1 mm
 06:53     16:42    Daglengte: 9:49 Zondag 29 Nov
01:00 14.8° 1011.7 hPa 7.9 m/s 40.5 mm 14.7° 1011.9 hPa 8.1 m/s 16.5° 1009.0 hPa 6.3 m/s 40.5 mm
04:00 14.0° 1011.0 hPa 5.5 m/s 40.7 mm 13.8° 1011.3 hPa 5.5 m/s 16.0° 1008.0 hPa 4.6 m/s 40.7 mm
07:00 13.3° 1010.4 hPa 3.2 m/s 40.7 mm 13.0° 1010.7 hPa 3.0 m/s 16.4° 1007.2 hPa 5.5 m/s 40.7 mm
10:00 15.4° 1010.1 hPa 4.4 m/s 40.7 mm 15.2° 1010.4 hPa 4.1 m/s 18.5° 1006.6 hPa 7.7 m/s 40.7 mm
13:00 17.4° 1009.7 hPa 5.7 m/s 41.1 mm 17.3° 1010.1 hPa 5.2 m/s 18.3° 1004.9 hPa 11.4 m/s 41.1 mm
16:00 15.0° 1010.3 hPa 3.9 m/s 46.0 mm 14.9° 1010.9 hPa 3.5 m/s 16.3° 1004.1 hPa 8.7 m/s 46.0 mm
19:00 12.7° 1011.0 hPa 2.1 m/s 46.2 mm 12.5° 1011.6 hPa 1.7 m/s 15.1° 1004.0 hPa 5.9 m/s 46.2 mm
22:00 12.4° 1010.8 hPa 1.7 m/s 46.3 mm 12.2° 1011.4 hPa 1.3 m/s 14.9° 1003.9 hPa 6.1 m/s 46.3 mm
 06:54     16:42    Daglengte: 9:48 Maandag 30 Nov
01:00 12.0° 1010.6 hPa 1.2 m/s 46.7 mm 11.8° 1011.2 hPa 0.9 m/s 14.1° 1003.7 hPa 4.9 m/s 46.7 mm
04:00 12.0° 1010.9 hPa 2.4 m/s 46.7 mm 11.9° 1011.5 hPa 2.1 m/s 14.2° 1004.6 hPa 6.3 m/s 46.7 mm
07:00 12.2° 1011.4 hPa 3.6 m/s 46.7 mm 11.9° 1011.8 hPa 3.2 m/s 15.0° 1006.6 hPa 8.5 m/s 46.7 mm
10:00 14.4° 1012.4 hPa 4.3 m/s 46.7 mm 14.2° 1012.7 hPa 3.7 m/s 17.0° 1009.3 hPa 11.1 m/s 46.7 mm
13:00 16.7° 1013.3 hPa 4.5 m/s 46.7 mm 16.5° 1013.6 hPa 4.2 m/s 18.5° 1009.8 hPa 8.1 m/s 46.7 mm
16:00 15.6° 1014.6 hPa 3.4 m/s 46.7 mm 15.3° 1015.0 hPa 3.2 m/s 17.8° 1011.1 hPa 5.2 m/s 46.7 mm
19:00 14.3° 1016.1 hPa 2.4 m/s 46.7 mm 14.2° 1016.3 hPa 2.2 m/s 15.7° 1013.3 hPa 4.7 m/s 46.7 mm
22:00 12.7° 1016.9 hPa 2.2 m/s 46.7 mm 12.4° 1017.0 hPa 2.2 m/s 15.2° 1015.1 hPa 3.3 m/s 46.7 mm
 06:55     16:42    Daglengte: 9:47 Dinsdag 01 Dec
01:00 11.0° 1017.6 hPa 2.1 m/s 46.7 mm 10.7° 1017.8 hPa 2.1 m/s 14.7° 1015.6 hPa 2.3 m/s 46.7 mm
04:00 11.2° 1018.0 hPa 1.8 m/s 46.7 mm 11.0° 1018.2 hPa 1.8 m/s 14.0° 1015.5 hPa 2.8 m/s 46.7 mm
07:00 11.5° 1018.3 hPa 1.5 m/s 46.7 mm 11.3° 1018.6 hPa 1.4 m/s 13.4° 1015.4 hPa 3.1 m/s 46.7 mm
10:00 13.9° 1018.3 hPa 2.2 m/s 46.7 mm 13.8° 1018.5 hPa 2.1 m/s 16.0° 1015.8 hPa 2.4 m/s 46.7 mm
13:00 16.3° 1018.0 hPa 2.8 m/s 46.7 mm 16.2° 1018.4 hPa 2.9 m/s 17.9° 1014.2 hPa 1.6 m/s 46.7 mm
16:00 14.7° 1018.3 hPa 2.3 m/s 46.8 mm 14.5° 1018.8 hPa 2.4 m/s 17.1° 1013.5 hPa 2.0 m/s 46.8 mm
19:00 13.1° 1018.7 hPa 1.8 m/s 46.9 mm 12.8° 1019.1 hPa 1.8 m/s 16.3° 1013.9 hPa 2.0 m/s 46.9 mm
22:00 12.6° 1018.9 hPa 1.8 m/s 46.9 mm 12.4° 1019.3 hPa 1.8 m/s 15.5° 1014.2 hPa 2.9 m/s 46.9 mm
 06:56     16:41    Daglengte: 9:45 Woensdag 02 Dec
01:00 12.1° 1019.0 hPa 1.7 m/s 46.9 mm 11.9° 1019.5 hPa 1.7 m/s 14.6° 1013.9 hPa 2.3 m/s 46.9 mm
07:00 12.3° 1018.5 hPa 2.0 m/s 46.9 mm 12.2° 1019.0 hPa 1.9 m/s 13.8° 1012.9 hPa 2.6 m/s 46.9 mm
13:00 15.5° 1017.4 hPa 2.3 m/s 47.1 mm 15.4° 1017.9 hPa 2.4 m/s 16.3° 1012.3 hPa 1.8 m/s 47.1 mm
19:00 13.7° 1017.1 hPa 0.9 m/s 47.8 mm 13.5° 1017.5 hPa 0.9 m/s 15.5° 1012.8 hPa 0.9 m/s 47.8 mm
 06:57     16:41    Daglengte: 9:44 Donderdag 03 Dec
01:00 12.3° 1016.4 hPa 1.5 m/s 47.9 mm 12.1° 1016.7 hPa 1.4 m/s 14.8° 1013.5 hPa 2.8 m/s 47.9 mm
07:00 11.6° 1014.7 hPa 1.1 m/s 48.1 mm 11.4° 1014.8 hPa 1.0 m/s 14.2° 1013.1 hPa 1.8 m/s 48.1 mm
13:00 15.0° 1012.7 hPa 3.4 m/s 48.2 mm 14.9° 1012.7 hPa 3.6 m/s 16.5° 1013.0 hPa 1.6 m/s 48.2 mm
19:00 13.1° 1012.8 hPa 2.0 m/s 48.6 mm 12.8° 1012.6 hPa 2.1 m/s 16.2° 1014.7 hPa 0.9 m/s 48.6 mm
 06:58     16:41    Daglengte: 9:43 Vrijdag 04 Dec
01:00 12.6° 1012.9 hPa 1.7 m/s 48.7 mm 12.3° 1012.6 hPa 1.7 m/s 16.2° 1015.8 hPa 2.0 m/s 48.7 mm
07:00 10.3° 1013.3 hPa 2.1 m/s 48.7 mm 9.8° 1013.1 hPa 2.2 m/s 15.7° 1015.5 hPa 1.4 m/s 48.7 mm
13:00 17.8° 1014.7 hPa 1.4 m/s 48.7 mm 17.8° 1014.7 hPa 1.4 m/s 48.7 mm
19:00 14.9° 1012.0 hPa 2.2 m/s 0.5 mm
 06:59     16:41    Daglengte: 9:42 Zaterdag 05 Dec
01:00 14.3° 1012.1 hPa 2.0 m/s 0.6 mm
07:00 14.1° 1011.5 hPa 1.9 m/s 0.6 mm
13:00 17.1° 1010.8 hPa 2.9 m/s 0.0 mm
19:00 14.8° 1011.1 hPa 1.8 m/s 1.8 mm
 07:00     16:41    Daglengte: 9:41 Zondag 06 Dec
01:00 14.1° 1011.2 hPa 1.9 m/s 1.6 mm
07:00 13.7° 1010.9 hPa 2.4 m/s 1.4 mm
13:00 16.6° 1010.5 hPa 3.6 m/s 1.5 mm
19:00 14.6° 1011.4 hPa 2.9 m/s 1.8 mm
 07:01     16:41    Daglengte: 9:40 Maandag 07 Dec
01:00 14.1° 1012.3 hPa 2.9 m/s 1.3 mm
07:00 13.8° 1011.9 hPa 2.5 m/s 1.2 mm
13:00 16.7° 1011.2 hPa 3.1 m/s 0.6 mm
19:00 14.4° 1011.6 hPa 2.9 m/s 0.9 mm
 07:01     16:41    Daglengte: 9:40 Dinsdag 08 Dec
01:00 13.8° 1012.2 hPa 3.4 m/s 1.1 mm
07:00 13.6° 1011.9 hPa 2.9 m/s 0.5 mm
13:00 16.8° 1011.7 hPa 2.6 m/s 0.7 mm
19:00 14.6° 1012.0 hPa 2.3 m/s 0.8 mm
 07:02     16:41    Daglengte: 9:39 Woensdag 09 Dec
01:00 13.8° 1012.7 hPa 2.7 m/s 0.8 mm
07:00 13.4° 1012.7 hPa 3.2 m/s 0.6 mm
13:00 16.5° 1013.1 hPa 2.9 m/s 0.6 mm
19:00 14.0° 1014.2 hPa 3.0 m/s 1.3 mm
FMI Hirlam - 7.5 km EWN WRFDA - 12 km DWD ICON - 7 km GFS - 25 km Basiskaart






























































Updatetijd (Europe/Brussels) Resolutie Lengte Stap
FMI Hirlam 18:00, 00:00, 06:00, 12:00 7.5 km 49h 1h
EWN WRFDA 21:30, 03:30, 09:30, 15:30 12 km 73h 1h
DWD ICON 17:15, 23:15, 05:15, 11:15 7 km 75h 1h
GFS 18:45, 00:45, 06:45, 12:45 25 km 237h 3h
30+ mm
25-30 mm
20-25 mm
15-20 mm
10-15 mm
6-10 mm
4-6 mm
2-4 mm
1-2 mm
0.5-1 mm
0.2-0.5 mm
0.1-0.2 mm
30+ mm
25-30 mm
20-25 mm
15-20 mm
10-15 mm
6-10 mm
4-6 mm
2-4 mm
1-2 mm
0.5-1 mm
0.2-0.5 mm
0.1-0.2 mm
Sneeuwval
Natte sneeuw
Hagel
Vorst
30+ mm
25-30 mm
20-25 mm
15-20 mm
10-15 mm
6-10 mm
4-6 mm
2-4 mm
1-2 mm
0.5-1 mm
0.2-0.5 mm
0.1-0.2 mm
Sneeuwval
Natte sneeuw
Hagel
Vorst
Onweer
50 mm
40 mm
30 mm
26 mm
22 mm
18 mm
14 mm
10 mm
9 mm
8 mm
7 mm
6 mm
5 mm
4.5 mm
4 mm
3.5 mm
3 mm
2.5 mm
2 mm
1.5 mm
1 mm
0.8 mm
0.6 mm
0.4 mm
0.2 mm
0.05 mm
35°
30°
25°
20°
15°
10°
-5°
-10°
-15°
-20°
-25°
-30°
-35°
33> m/s
29 m/s
25 m/s
21 m/s
17 m/s
14 m/s
11 m/s
8 m/s
5 m/s
3 m/s
0 m/s
2600 J/kg
2400 J/kg
2200 J/kg
2000 J/kg
1800 J/kg
1600 J/kg
1400 J/kg
1200 J/kg
1000 J/kg
800 J/kg
600 J/kg
400 J/kg
200 J/kg
70 dBZ
65 dBZ
60 dBZ
55 dBZ
50 dBZ
45 dBZ
40 dBZ
35 dBZ
30 dBZ
25 dBZ
20 dBZ
15 dBZ
10 dBZ
5 dBZ
-1 K
-2 K
-3 K
-4 K
-5 K
-6 K
-7 K
-8 K
-9 K
950 m²/s²
900 m²/s²
850 m²/s²
800 m²/s²
750 m²/s²
700 m²/s²
650 m²/s²
600 m²/s²
550 m²/s²
500 m²/s²
450 m²/s²
400 m²/s²
350 m²/s²
300 m²/s²
250 m²/s²
200 m²/s²
150 m²/s²
100 m²/s²
46 m/s
44 m/s
42 m/s
40 m/s
38 m/s
36 m/s
34 m/s
32 m/s
30 m/s
28 m/s
26 m/s
24 m/s
22 m/s
20 m/s
16 m/s
12 m/s
8 m/s
4 m/s
30 m/s
28 m/s
26 m/s
24 m/s
22 m/s
20 m/s
18 m/s
16 m/s
14 m/s
12 m/s
10 m/s
8 m/s
6 m/s
4 m/s
2 m/s
3.0
2.8
2.6
2.4
2.2
2.0
1.8
1.6
1.4
1.2
1.0
0.8
0.6
0.4
0.2
15
14
13
12
11
10
9
8
7
6
5
4
3
2
1
90%
80%
70%
60%
50%
40%
30%
20%
10%
42
40
38
36
34
32
30
28
26
24
22
20
18
16
14
12
90+ cm
80-90 cm
70-80 cm
60-70 cm